Location: Cheching
(60.0667°N, 164.2167°W)
Time: 13:32:57
(UTC+00:00)

LilacSat-2 - Pass Details

Date: 17 January 2021
Orbit: 512 x 533 km, 97.5° (Epoch: 05 March)

Event Time Altitude Azimuth Distance (km) Brightness Sun altitude
Rises 05:21:39 0° 223° (SW) 2,633 ? -19.6°
Reaches altitude 10° 05:25:15 10° 260° (W) 1,758 ? -20.1°
Maximum altitude 05:26:23 11° 278° (W) 1,692 ? -20.2°
Drops below altitude 10° 05:27:31 10° 295° (WNW) 1,766 ? -20.4°
Sets 05:31:10 0° 332° (NNW) 2,668 ? -20.8°
